Year,Month,Day,Hour,Minute,Value (Times are PST for temperature in C)
2014,10,24,00,00,5.90
2014,10,24,00,01,5.80
2014,10,24,00,02,5.80
2014,10,24,00,03,5.80
2014,10,24,00,04,5.80
2014,10,24,00,05,5.80
2014,10,24,00,06,5.80
2014,10,24,00,07,5.80
2014,10,24,00,08,5.80
2014,10,24,00,09,5.80
2014,10,24,00,10,5.80
2014,10,24,00,11,5.80
2014,10,24,00,12,5.80
2014,10,24,00,13,5.80
2014,10,24,00,14,5.80
2014,10,24,00,15,5.80
2014,10,24,00,16,5.80
2014,10,24,00,17,5.90
2014,10,24,00,18,5.90
2014,10,24,00,19,5.90
2014,10,24,00,20,5.90
2014,10,24,00,21,5.90
2014,10,24,00,22,5.90
2014,10,24,00,23,5.90
2014,10,24,00,24,5.90
2014,10,24,00,25,5.90
2014,10,24,00,26,5.90
2014,10,24,00,27,5.90
2014,10,24,00,28,5.90
2014,10,24,00,29,5.90
2014,10,24,00,30,5.90
2014,10,24,00,31,5.90
2014,10,24,00,32,5.90
2014,10,24,00,33,5.90
2014,10,24,00,34,5.90
2014,10,24,00,35,5.90
2014,10,24,00,36,5.90
2014,10,24,00,37,5.90
2014,10,24,00,38,5.90
2014,10,24,00,39,5.90
2014,10,24,00,40,5.90
2014,10,24,00,41,5.90
2014,10,24,00,42,5.90
2014,10,24,00,43,5.90
2014,10,24,00,44,5.90
2014,10,24,00,45,5.90
2014,10,24,00,46,5.90
2014,10,24,00,47,5.90
2014,10,24,00,48,5.90
2014,10,24,00,49,5.90
2014,10,24,00,50,5.90
2014,10,24,00,51,5.90
2014,10,24,00,52,5.90
2014,10,24,00,53,5.90
2014,10,24,00,54,5.90
2014,10,24,00,55,5.90
2014,10,24,00,56,5.90
2014,10,24,00,57,5.90
2014,10,24,00,58,5.90
2014,10,24,00,59,5.90
2014,10,24,01,00,5.90
2014,10,24,01,01,5.90
2014,10,24,01,02,5.90
2014,10,24,01,03,5.90
2014,10,24,01,04,5.90
2014,10,24,01,05,5.90
2014,10,24,01,06,5.90
2014,10,24,01,07,5.90
2014,10,24,01,08,5.90
2014,10,24,01,09,5.90
2014,10,24,01,10,5.90
2014,10,24,01,11,5.90
2014,10,24,01,12,5.90
2014,10,24,01,13,5.90
2014,10,24,01,14,5.90
2014,10,24,01,15,5.90
2014,10,24,01,16,5.90
2014,10,24,01,17,5.90
2014,10,24,01,18,6.00
2014,10,24,01,19,5.90
2014,10,24,01,20,5.90
2014,10,24,01,21,5.90
2014,10,24,01,22,5.90
2014,10,24,01,23,5.90
2014,10,24,01,24,5.90
2014,10,24,01,25,5.90
2014,10,24,01,26,5.90
2014,10,24,01,27,5.90
2014,10,24,01,28,5.90
2014,10,24,01,29,5.90
2014,10,24,01,30,5.90
2014,10,24,01,31,5.90
2014,10,24,01,32,5.90
2014,10,24,01,33,5.90
2014,10,24,01,34,5.90
2014,10,24,01,35,5.90
2014,10,24,01,36,5.90
2014,10,24,01,37,5.90
2014,10,24,01,38,5.90
2014,10,24,01,39,5.80
2014,10,24,01,40,5.90
2014,10,24,01,41,5.80
2014,10,24,01,42,5.90
2014,10,24,01,43,5.90
2014,10,24,01,44,5.90
2014,10,24,01,45,5.90
2014,10,24,01,46,5.90
2014,10,24,01,47,5.90
2014,10,24,01,48,5.90
2014,10,24,01,49,5.90
2014,10,24,01,50,5.90
2014,10,24,01,51,5.90
2014,10,24,01,52,5.90
2014,10,24,01,53,5.80
2014,10,24,01,54,5.80
2014,10,24,01,55,5.80
2014,10,24,01,56,5.80
2014,10,24,01,57,5.80
2014,10,24,01,58,5.80
2014,10,24,01,59,5.80
2014,10,24,02,00,5.80
2014,10,24,02,01,5.80
2014,10,24,02,02,5.80
2014,10,24,02,03,5.80
2014,10,24,02,04,5.80
2014,10,24,02,05,5.80
2014,10,24,02,06,5.80
2014,10,24,02,07,5.80
2014,10,24,02,08,5.80
2014,10,24,02,09,5.80
2014,10,24,02,10,5.80
2014,10,24,02,11,5.90
2014,10,24,02,12,5.90
2014,10,24,02,13,5.90
2014,10,24,02,14,5.90
2014,10,24,02,15,5.90
2014,10,24,02,16,5.90
2014,10,24,02,17,5.90
2014,10,24,02,18,5.90
2014,10,24,02,19,5.90
2014,10,24,02,20,5.90
2014,10,24,02,21,5.80
2014,10,24,02,22,5.80
2014,10,24,02,23,5.80
2014,10,24,02,24,5.80
2014,10,24,02,25,5.80
2014,10,24,02,26,5.80
2014,10,24,02,27,5.80
2014,10,24,02,28,5.80
2014,10,24,02,29,5.80
2014,10,24,02,30,5.80
2014,10,24,02,31,5.80
2014,10,24,02,32,5.80
2014,10,24,02,33,5.80
2014,10,24,02,34,5.80
2014,10,24,02,35,5.90
2014,10,24,02,36,5.90
2014,10,24,02,37,5.90
2014,10,24,02,38,5.90
2014,10,24,02,39,5.90
2014,10,24,02,40,5.90
2014,10,24,02,41,5.90
2014,10,24,02,42,5.90
2014,10,24,02,43,6.00
2014,10,24,02,44,6.00
2014,10,24,02,45,6.00
2014,10,24,02,46,6.00
2014,10,24,02,47,6.10
2014,10,24,02,48,6.10
2014,10,24,02,49,6.10
2014,10,24,02,50,6.10
2014,10,24,02,51,6.10
2014,10,24,02,52,6.10
2014,10,24,02,53,6.10
2014,10,24,02,54,6.00
2014,10,24,02,55,6.00
2014,10,24,02,56,5.90
2014,10,24,02,57,5.90
2014,10,24,02,58,5.90
2014,10,24,02,59,5.80
2014,10,24,03,00,5.80
2014,10,24,03,01,5.80
2014,10,24,03,02,5.80
2014,10,24,03,03,5.80
2014,10,24,03,04,5.80
2014,10,24,03,05,5.70
2014,10,24,03,06,5.70
2014,10,24,03,07,5.70
2014,10,24,03,08,5.60
2014,10,24,03,09,5.60
2014,10,24,03,10,5.60
2014,10,24,03,11,5.60
2014,10,24,03,12,5.60
2014,10,24,03,13,5.60
2014,10,24,03,14,5.60
2014,10,24,03,15,5.60
2014,10,24,03,16,5.60
2014,10,24,03,17,5.60
2014,10,24,03,18,5.60
2014,10,24,03,19,5.60
2014,10,24,03,20,5.60
2014,10,24,03,21,5.60
2014,10,24,03,22,5.60
2014,10,24,03,23,5.60
2014,10,24,03,24,5.50
2014,10,24,03,25,5.50
2014,10,24,03,26,5.40
2014,10,24,03,27,5.50
2014,10,24,03,28,5.40
2014,10,24,03,29,5.50
2014,10,24,03,30,5.50
2014,10,24,03,31,5.50
2014,10,24,03,32,5.50
2014,10,24,03,33,5.50
2014,10,24,03,34,5.50
2014,10,24,03,35,5.50
2014,10,24,03,36,5.50
2014,10,24,03,37,5.50
2014,10,24,03,38,5.50
2014,10,24,03,39,5.40
2014,10,24,03,40,5.40
2014,10,24,03,41,5.30
2014,10,24,03,42,5.30
2014,10,24,03,43,5.30
2014,10,24,03,44,5.20
2014,10,24,03,45,5.20
2014,10,24,03,46,5.20
2014,10,24,03,47,5.20
2014,10,24,03,48,5.20
2014,10,24,03,49,5.20
2014,10,24,03,50,5.20
2014,10,24,03,51,5.20
2014,10,24,03,52,5.20
2014,10,24,03,53,5.20
2014,10,24,03,54,5.20
2014,10,24,03,55,5.20
2014,10,24,03,56,5.30
2014,10,24,03,57,5.30
2014,10,24,03,58,5.30
2014,10,24,03,59,5.30
2014,10,24,04,00,5.30
2014,10,24,04,01,5.30
2014,10,24,04,02,5.30
2014,10,24,04,03,5.30
2014,10,24,04,04,5.30
2014,10,24,04,05,5.30
2014,10,24,04,06,5.30
2014,10,24,04,07,5.20
2014,10,24,04,08,5.20
2014,10,24,04,09,5.20
2014,10,24,04,10,5.20
2014,10,24,04,11,5.20
2014,10,24,04,12,5.20
2014,10,24,04,13,5.20
2014,10,24,04,14,5.20
2014,10,24,04,15,5.20
2014,10,24,04,16,5.20
2014,10,24,04,17,5.20
2014,10,24,04,18,5.20
2014,10,24,04,19,5.20
2014,10,24,04,20,5.20
2014,10,24,04,21,5.20
2014,10,24,04,22,5.10
2014,10,24,04,23,5.10
2014,10,24,04,24,5.10
2014,10,24,04,25,5.10
2014,10,24,04,26,5.10
2014,10,24,04,27,5.10
2014,10,24,04,28,5.10
2014,10,24,04,29,5.10
2014,10,24,04,30,5.10
2014,10,24,04,31,5.10
2014,10,24,04,32,5.10
2014,10,24,04,33,5.10
2014,10,24,04,34,5.10
2014,10,24,04,35,5.10
2014,10,24,04,36,5.10
2014,10,24,04,37,5.10
2014,10,24,04,38,5.10
2014,10,24,04,39,5.10
2014,10,24,04,40,5.20
2014,10,24,04,41,5.20
2014,10,24,04,42,5.20
2014,10,24,04,43,5.20
2014,10,24,04,44,5.20
2014,10,24,04,45,5.20
2014,10,24,04,46,5.20
2014,10,24,04,47,5.20
2014,10,24,04,48,5.20
2014,10,24,04,49,5.20
2014,10,24,04,50,5.20
2014,10,24,04,51,5.10
2014,10,24,04,52,5.10
2014,10,24,04,53,5.20
2014,10,24,04,54,5.20
2014,10,24,04,55,5.20
2014,10,24,04,56,5.20
2014,10,24,04,57,5.20
2014,10,24,04,58,5.20
2014,10,24,04,59,5.20
2014,10,24,05,00,5.20
2014,10,24,05,01,5.20
2014,10,24,05,02,5.20
2014,10,24,05,03,5.20
2014,10,24,05,04,5.10
2014,10,24,05,05,5.10
2014,10,24,05,06,5.10
2014,10,24,05,07,5.10
2014,10,24,05,08,5.10
2014,10,24,05,09,5.10
2014,10,24,05,10,5.10
2014,10,24,05,11,5.10
2014,10,24,05,12,5.10
2014,10,24,05,13,5.10
2014,10,24,05,14,5.10
2014,10,24,05,15,5.10
2014,10,24,05,16,5.10
2014,10,24,05,17,5.20
2014,10,24,05,18,5.20
2014,10,24,05,19,5.20
2014,10,24,05,20,5.20
2014,10,24,05,21,5.20
2014,10,24,05,22,5.20
2014,10,24,05,23,5.30
2014,10,24,05,24,5.30
2014,10,24,05,25,5.30
2014,10,24,05,26,5.30
2014,10,24,05,27,5.30
2014,10,24,05,28,5.30
2014,10,24,05,29,5.30
2014,10,24,05,30,5.30
2014,10,24,05,31,5.30
2014,10,24,05,32,5.30
2014,10,24,05,33,5.30
2014,10,24,05,34,5.30
2014,10,24,05,35,5.30
2014,10,24,05,36,5.30
2014,10,24,05,37,5.30
2014,10,24,05,38,5.30
2014,10,24,05,39,5.30
2014,10,24,05,40,5.30
2014,10,24,05,41,5.30
2014,10,24,05,42,5.30
2014,10,24,05,43,5.40
2014,10,24,05,44,5.40
2014,10,24,05,45,5.40
2014,10,24,05,46,5.40
2014,10,24,05,47,5.40
2014,10,24,05,48,5.40
2014,10,24,05,49,5.40
2014,10,24,05,50,5.50
2014,10,24,05,51,5.50
2014,10,24,05,52,5.50
2014,10,24,05,53,5.50
2014,10,24,05,54,5.50
2014,10,24,05,55,5.60
2014,10,24,05,56,5.60
2014,10,24,05,57,5.60
2014,10,24,05,58,5.60
2014,10,24,05,59,5.60
2014,10,24,06,00,5.60
2014,10,24,06,01,5.60
2014,10,24,06,02,5.60
2014,10,24,06,03,5.70
2014,10,24,06,04,5.70
2014,10,24,06,05,5.70
2014,10,24,06,06,5.70
2014,10,24,06,07,5.70
2014,10,24,06,08,5.70
2014,10,24,06,09,5.70
2014,10,24,06,10,5.80
2014,10,24,06,11,5.80
2014,10,24,06,12,5.80
2014,10,24,06,13,5.90
2014,10,24,06,14,5.90
2014,10,24,06,15,5.90
2014,10,24,06,16,5.90
2014,10,24,06,17,6.00
2014,10,24,06,18,6.00
2014,10,24,06,19,6.00
2014,10,24,06,20,5.90
2014,10,24,06,21,5.90
2014,10,24,06,22,6.00
2014,10,24,06,23,5.90
2014,10,24,06,24,5.90
2014,10,24,06,25,5.90
2014,10,24,06,26,5.90
2014,10,24,06,27,5.90
2014,10,24,06,28,5.90
2014,10,24,06,29,6.00
2014,10,24,06,30,6.00
2014,10,24,06,31,6.00
2014,10,24,06,32,6.00
2014,10,24,06,33,6.00
2014,10,24,06,34,6.00
2014,10,24,06,35,6.00
2014,10,24,06,36,6.00
2014,10,24,06,37,6.00
2014,10,24,06,38,6.00
2014,10,24,06,39,6.00
2014,10,24,06,40,6.00
2014,10,24,06,41,6.00
2014,10,24,06,42,6.00
2014,10,24,06,43,6.00
2014,10,24,06,44,6.00
2014,10,24,06,45,6.00
2014,10,24,06,46,6.00
2014,10,24,06,47,6.00
2014,10,24,06,48,6.00
2014,10,24,06,49,6.00
2014,10,24,06,50,6.00
2014,10,24,06,51,6.00
2014,10,24,06,52,6.00
2014,10,24,06,53,6.10
2014,10,24,06,54,6.10
2014,10,24,06,55,6.10
2014,10,24,06,56,6.10
2014,10,24,06,57,6.10
2014,10,24,06,58,6.10
2014,10,24,06,59,6.10
2014,10,24,07,00,6.20
2014,10,24,07,01,6.20
2014,10,24,07,02,6.20
2014,10,24,07,03,6.20
2014,10,24,07,04,6.30
2014,10,24,07,05,6.30
2014,10,24,07,06,6.30
2014,10,24,07,07,6.30
2014,10,24,07,08,6.30
2014,10,24,07,09,6.30
2014,10,24,07,10,6.30
2014,10,24,07,11,6.30
2014,10,24,07,12,6.30
2014,10,24,07,13,6.30
2014,10,24,07,14,6.30
2014,10,24,07,15,6.30
2014,10,24,07,16,6.30
2014,10,24,07,17,6.30
2014,10,24,07,18,6.40
2014,10,24,07,19,6.40
2014,10,24,07,20,6.40
2014,10,24,07,21,6.40
2014,10,24,07,22,6.40
2014,10,24,07,23,6.40
2014,10,24,07,24,6.40
2014,10,24,07,25,6.40
2014,10,24,07,26,6.40
2014,10,24,07,27,6.40
2014,10,24,07,28,6.40
2014,10,24,07,29,6.40
2014,10,24,07,30,6.50
2014,10,24,07,31,6.40
2014,10,24,07,32,6.40
2014,10,24,07,33,6.40
2014,10,24,07,34,6.40
2014,10,24,07,35,6.40
2014,10,24,07,36,6.40
2014,10,24,07,37,6.40
2014,10,24,07,38,6.40
2014,10,24,07,39,6.30
2014,10,24,07,40,6.30
2014,10,24,07,41,6.30
2014,10,24,07,42,6.30
2014,10,24,07,43,6.30
2014,10,24,07,44,6.30
2014,10,24,07,45,6.30
2014,10,24,07,46,6.30
2014,10,24,07,47,6.30
2014,10,24,07,48,6.30
2014,10,24,07,49,6.30
2014,10,24,07,50,6.30
2014,10,24,07,51,6.30
2014,10,24,07,52,6.30
2014,10,24,07,53,6.30
2014,10,24,07,54,6.30
2014,10,24,07,55,6.30
2014,10,24,07,56,6.30
2014,10,24,07,57,6.30
2014,10,24,07,58,6.30
2014,10,24,07,59,6.30
2014,10,24,08,00,6.40
2014,10,24,08,01,6.40
2014,10,24,08,02,6.40
2014,10,24,08,03,6.40
2014,10,24,08,04,6.40
2014,10,24,08,05,6.40
2014,10,24,08,06,6.40
2014,10,24,08,07,6.40
2014,10,24,08,08,6.40
2014,10,24,08,09,6.40
2014,10,24,08,10,6.40
2014,10,24,08,11,6.40
2014,10,24,08,12,6.40
2014,10,24,08,13,6.30
2014,10,24,08,14,6.30
2014,10,24,08,15,6.30
2014,10,24,08,16,6.30
2014,10,24,08,17,6.30
2014,10,24,08,18,6.30
2014,10,24,08,19,6.30
2014,10,24,08,20,6.30
2014,10,24,08,21,6.30
2014,10,24,08,22,6.30
2014,10,24,08,23,6.30
2014,10,24,08,24,6.30
2014,10,24,08,25,6.30
2014,10,24,08,26,6.30
2014,10,24,08,27,6.30
2014,10,24,08,28,6.30
2014,10,24,08,29,6.30
2014,10,24,08,30,6.30
2014,10,24,08,31,6.30
2014,10,24,08,32,6.30
2014,10,24,08,33,6.30
2014,10,24,08,34,6.40
2014,10,24,08,35,6.40
2014,10,24,08,36,6.40
2014,10,24,08,37,6.40
2014,10,24,08,38,6.40
2014,10,24,08,39,6.40
2014,10,24,08,40,6.40
2014,10,24,08,41,6.40
2014,10,24,08,42,6.40
2014,10,24,08,43,6.40
2014,10,24,08,44,6.40
2014,10,24,08,45,6.40
2014,10,24,08,46,6.40
2014,10,24,08,47,6.40
2014,10,24,08,48,6.30
2014,10,24,08,49,6.30
2014,10,24,08,50,6.30
2014,10,24,08,51,6.30
2014,10,24,08,52,6.30
2014,10,24,08,53,6.40
2014,10,24,08,54,6.40
2014,10,24,08,55,6.40
2014,10,24,08,56,6.50
2014,10,24,08,57,6.50
2014,10,24,08,58,6.60
2014,10,24,08,59,6.60
2014,10,24,09,00,6.60
2014,10,24,09,01,6.70
2014,10,24,09,02,6.70
2014,10,24,09,03,6.70
2014,10,24,09,04,6.80
2014,10,24,09,05,6.80
2014,10,24,09,06,6.80
2014,10,24,09,07,6.80
2014,10,24,09,08,6.80
2014,10,24,09,09,6.80
2014,10,24,09,10,6.90
2014,10,24,09,11,6.90
2014,10,24,09,12,6.90
2014,10,24,09,13,6.90
2014,10,24,09,14,6.90
2014,10,24,09,15,7.00
2014,10,24,09,16,7.00
2014,10,24,09,17,7.00
2014,10,24,09,18,7.00
2014,10,24,09,19,7.10
2014,10,24,09,20,7.10
2014,10,24,09,21,7.10
2014,10,24,09,22,7.10
2014,10,24,09,23,7.10
2014,10,24,09,24,7.10
2014,10,24,09,25,7.10
2014,10,24,09,26,7.10
2014,10,24,09,27,7.10
2014,10,24,09,28,7.10
2014,10,24,09,29,7.10
2014,10,24,09,30,7.10
2014,10,24,09,31,7.00
2014,10,24,09,32,7.10
2014,10,24,09,33,7.10
2014,10,24,09,34,7.10
2014,10,24,09,35,7.10
2014,10,24,09,36,7.10
2014,10,24,09,37,7.10
2014,10,24,09,38,7.10
2014,10,24,09,39,7.20
2014,10,24,09,40,7.20
2014,10,24,09,41,7.20
2014,10,24,09,42,7.20
2014,10,24,09,43,7.20
2014,10,24,09,44,7.20
2014,10,24,09,45,7.20
2014,10,24,09,46,7.20
2014,10,24,09,47,7.20
2014,10,24,09,48,7.30
2014,10,24,09,49,7.30
2014,10,24,09,50,7.30
2014,10,24,09,51,7.30
2014,10,24,09,52,7.30
2014,10,24,09,53,7.30
2014,10,24,09,54,7.30
2014,10,24,09,55,7.40
2014,10,24,09,56,7.40
2014,10,24,09,57,7.40
2014,10,24,09,58,7.40
2014,10,24,09,59,7.40
2014,10,24,10,00,7.40
2014,10,24,10,01,7.40
2014,10,24,10,02,7.40
2014,10,24,10,03,7.40
2014,10,24,10,04,7.40
2014,10,24,10,05,7.40
2014,10,24,10,06,7.40
2014,10,24,10,07,7.40
2014,10,24,10,08,7.40
2014,10,24,10,09,7.40
2014,10,24,10,10,7.40
2014,10,24,10,11,7.40
2014,10,24,10,12,7.40
2014,10,24,10,13,7.40
2014,10,24,10,14,7.40
2014,10,24,10,15,7.50
2014,10,24,10,16,7.50
2014,10,24,10,17,7.50
2014,10,24,10,18,7.50
2014,10,24,10,19,7.60
2014,10,24,10,20,7.60
2014,10,24,10,21,7.60
2014,10,24,10,22,7.60
2014,10,24,10,23,7.60
2014,10,24,10,24,7.60
2014,10,24,10,25,7.60
2014,10,24,10,26,7.60
2014,10,24,10,27,7.70
2014,10,24,10,28,7.70
2014,10,24,10,29,7.70
2014,10,24,10,30,7.70
2014,10,24,10,31,7.70
2014,10,24,10,32,7.70
2014,10,24,10,33,7.70
2014,10,24,10,34,7.70
2014,10,24,10,35,7.80
2014,10,24,10,36,7.80
2014,10,24,10,37,7.80
2014,10,24,10,38,7.80
2014,10,24,10,39,7.80
2014,10,24,10,40,7.80
2014,10,24,10,41,7.80
2014,10,24,10,42,7.80
2014,10,24,10,43,7.90
2014,10,24,10,44,7.90
2014,10,24,10,45,7.90
2014,10,24,10,46,8.00
2014,10,24,10,47,8.00
2014,10,24,10,48,8.10
2014,10,24,10,49,8.10
2014,10,24,10,50,8.10
2014,10,24,10,51,8.10
2014,10,24,10,52,8.20
2014,10,24,10,53,8.20
2014,10,24,10,54,8.20
2014,10,24,10,55,8.20
2014,10,24,10,56,8.30
2014,10,24,10,57,8.30
2014,10,24,10,58,8.30
2014,10,24,10,59,8.30
2014,10,24,11,00,8.30
2014,10,24,11,01,8.40
2014,10,24,11,02,8.40
2014,10,24,11,03,8.40
2014,10,24,11,04,8.40
2014,10,24,11,05,8.40
2014,10,24,11,06,8.50
2014,10,24,11,07,8.50
2014,10,24,11,08,8.60
2014,10,24,11,09,8.60
2014,10,24,11,10,8.60
2014,10,24,11,11,8.70
2014,10,24,11,12,8.70
2014,10,24,11,13,8.70
2014,10,24,11,14,8.80
2014,10,24,11,15,8.80
2014,10,24,11,16,8.80
2014,10,24,11,17,8.80
2014,10,24,11,18,8.90
2014,10,24,11,19,8.90
2014,10,24,11,20,8.90
2014,10,24,11,21,8.90
2014,10,24,11,22,9.00
2014,10,24,11,23,9.00
2014,10,24,11,24,9.10
2014,10,24,11,25,9.20
2014,10,24,11,26,9.20
2014,10,24,11,27,9.20
2014,10,24,11,28,9.30
2014,10,24,11,29,9.30
2014,10,24,11,30,9.40
2014,10,24,11,31,9.50
2014,10,24,11,32,9.50
2014,10,24,11,33,9.60
2014,10,24,11,34,9.60
2014,10,24,11,35,9.70
2014,10,24,11,36,9.70
2014,10,24,11,37,9.80
2014,10,24,11,38,9.80
2014,10,24,11,39,9.80
2014,10,24,11,40,9.90
2014,10,24,11,41,9.90
2014,10,24,11,42,10.00
2014,10,24,11,43,10.10
2014,10,24,11,44,10.20
2014,10,24,11,45,10.30
2014,10,24,11,46,10.40
2014,10,24,11,47,10.50
2014,10,24,11,48,10.70
2014,10,24,11,49,10.70
2014,10,24,11,50,10.80
2014,10,24,11,51,10.80
2014,10,24,11,52,10.80
2014,10,24,11,53,10.80
2014,10,24,11,54,10.80
2014,10,24,11,55,10.80
2014,10,24,11,56,10.80
2014,10,24,11,57,10.80
2014,10,24,11,58,10.80
2014,10,24,11,59,10.80
2014,10,24,12,00,10.80
2014,10,24,12,01,10.80
2014,10,24,12,02,10.80
2014,10,24,12,03,10.80
2014,10,24,12,04,10.80
2014,10,24,12,05,10.80
2014,10,24,12,06,10.80
2014,10,24,12,07,10.80
2014,10,24,12,08,10.80
2014,10,24,12,09,10.70
2014,10,24,12,10,10.70
2014,10,24,12,11,10.60
2014,10,24,12,12,10.60
2014,10,24,12,13,10.50
2014,10,24,12,14,10.40
2014,10,24,12,15,10.30
2014,10,24,12,16,10.30
2014,10,24,12,17,10.20
2014,10,24,12,18,10.20
2014,10,24,12,19,10.20
2014,10,24,12,20,10.20
2014,10,24,12,21,10.20
2014,10,24,12,22,10.30
2014,10,24,12,23,10.30
2014,10,24,12,24,10.30
2014,10,24,12,25,10.30
2014,10,24,12,26,10.40
2014,10,24,12,27,10.40
2014,10,24,12,28,10.40
2014,10,24,12,29,10.40
2014,10,24,12,30,10.50
2014,10,24,12,31,10.50
2014,10,24,12,32,10.50
2014,10,24,12,33,10.40
2014,10,24,12,34,10.40
2014,10,24,12,35,10.40
2014,10,24,12,36,10.40
2014,10,24,12,37,10.40
2014,10,24,12,38,10.30
2014,10,24,12,39,10.30
2014,10,24,12,40,10.30
2014,10,24,12,41,10.30
2014,10,24,12,42,10.30
2014,10,24,12,43,10.30
2014,10,24,12,44,10.30
2014,10,24,12,45,10.30
2014,10,24,12,46,10.30
2014,10,24,12,47,10.30
2014,10,24,12,48,10.30
2014,10,24,12,49,10.30
2014,10,24,12,50,10.30
2014,10,24,12,51,10.30
2014,10,24,12,52,10.30
2014,10,24,12,53,10.30
2014,10,24,12,54,10.40
2014,10,24,12,55,10.40
2014,10,24,12,56,10.40
2014,10,24,12,57,10.50
2014,10,24,12,58,10.50
2014,10,24,12,59,10.60
2014,10,24,13,00,10.60
2014,10,24,13,01,10.60
2014,10,24,13,02,10.70
2014,10,24,13,03,10.70
2014,10,24,13,04,10.70
2014,10,24,13,05,10.70
2014,10,24,13,06,10.70
2014,10,24,13,07,10.70
2014,10,24,13,08,10.70
2014,10,24,13,09,10.80
2014,10,24,13,10,10.80
2014,10,24,13,11,10.90
2014,10,24,13,12,11.00
2014,10,24,13,13,11.00
2014,10,24,13,14,11.10
2014,10,24,13,15,11.20
2014,10,24,13,16,11.20
2014,10,24,13,17,11.20
2014,10,24,13,18,11.30
2014,10,24,13,19,11.30
2014,10,24,13,20,11.40
2014,10,24,13,21,11.50
2014,10,24,13,22,11.50
2014,10,24,13,23,11.50
2014,10,24,13,24,11.60
2014,10,24,13,25,11.60
2014,10,24,13,26,11.70
2014,10,24,13,27,11.70
2014,10,24,13,28,11.80
2014,10,24,13,29,11.80
2014,10,24,13,30,11.90
2014,10,24,13,31,11.90
2014,10,24,13,32,11.90
2014,10,24,13,33,12.00
2014,10,24,13,34,12.00
2014,10,24,13,35,12.00
2014,10,24,13,36,12.00
2014,10,24,13,37,11.90
2014,10,24,13,38,11.80
2014,10,24,13,39,11.70
2014,10,24,13,40,11.60
2014,10,24,13,41,11.50
2014,10,24,13,42,11.40
2014,10,24,13,43,11.40
2014,10,24,13,44,11.30
2014,10,24,13,45,11.30
2014,10,24,13,46,11.30
2014,10,24,13,47,11.30
2014,10,24,13,48,11.30
2014,10,24,13,49,11.40
2014,10,24,13,50,11.40
2014,10,24,13,51,11.50
2014,10,24,13,52,11.50
2014,10,24,13,53,11.60
2014,10,24,13,54,11.60
2014,10,24,13,55,11.70
2014,10,24,13,56,11.70
2014,10,24,13,57,11.80
2014,10,24,13,58,11.80
2014,10,24,13,59,11.80
2014,10,24,14,00,11.90
2014,10,24,14,01,11.90
2014,10,24,14,02,11.90
2014,10,24,14,03,11.90
2014,10,24,14,04,11.90
2014,10,24,14,05,11.90
2014,10,24,14,06,12.00
2014,10,24,14,07,12.00
2014,10,24,14,08,12.00
2014,10,24,14,09,12.10
2014,10,24,14,10,12.10
2014,10,24,14,11,12.20
2014,10,24,14,12,12.20
2014,10,24,14,13,12.20
2014,10,24,14,14,12.30
2014,10,24,14,15,12.30
2014,10,24,14,16,12.40
2014,10,24,14,17,12.40
2014,10,24,14,18,12.50
2014,10,24,14,19,12.60
2014,10,24,14,20,12.60
2014,10,24,14,21,12.60
2014,10,24,14,22,12.60
2014,10,24,14,23,12.60
2014,10,24,14,24,12.60
2014,10,24,14,25,12.60
2014,10,24,14,26,12.60
2014,10,24,14,27,12.60
2014,10,24,14,28,12.60
2014,10,24,14,29,12.60
2014,10,24,14,30,12.50
2014,10,24,14,31,12.50
2014,10,24,14,32,12.40
2014,10,24,14,33,12.40
2014,10,24,14,34,12.40
2014,10,24,14,35,12.40
2014,10,24,14,36,12.40
2014,10,24,14,37,12.40
2014,10,24,14,38,12.40
2014,10,24,14,39,12.40
2014,10,24,14,40,12.40
2014,10,24,14,41,12.30
2014,10,24,14,42,12.30
2014,10,24,14,43,12.40
2014,10,24,14,44,12.40
2014,10,24,14,45,12.40
2014,10,24,14,46,12.50
2014,10,24,14,47,12.50
2014,10,24,14,48,12.40
2014,10,24,14,49,12.40
2014,10,24,14,50,12.40
2014,10,24,14,51,12.50
2014,10,24,14,52,12.50
2014,10,24,14,53,12.50
2014,10,24,14,54,12.50
2014,10,24,14,55,12.50
2014,10,24,14,56,12.50
2014,10,24,14,57,12.60
2014,10,24,14,58,12.50
2014,10,24,14,59,12.50
2014,10,24,15,00,12.50
2014,10,24,15,01,12.50
2014,10,24,15,02,12.50
2014,10,24,15,03,12.50
2014,10,24,15,04,12.60
2014,10,24,15,05,12.60
2014,10,24,15,06,12.70
2014,10,24,15,07,12.70
2014,10,24,15,08,12.80
2014,10,24,15,09,12.80
2014,10,24,15,10,12.90
2014,10,24,15,11,12.90
2014,10,24,15,12,13.00
2014,10,24,15,13,13.10
2014,10,24,15,14,13.10
2014,10,24,15,15,13.20
2014,10,24,15,16,13.20
2014,10,24,15,17,13.20
2014,10,24,15,18,13.20
2014,10,24,15,19,13.20
2014,10,24,15,20,13.30
2014,10,24,15,21,13.30
2014,10,24,15,22,13.30
2014,10,24,15,23,13.40
2014,10,24,15,24,13.40
2014,10,24,15,25,13.40
2014,10,24,15,26,13.40
2014,10,24,15,27,13.30
2014,10,24,15,28,13.30
2014,10,24,15,29,13.20
2014,10,24,15,30,13.20
2014,10,24,15,31,13.10
2014,10,24,15,32,13.10
2014,10,24,15,33,13.10
2014,10,24,15,34,13.00
2014,10,24,15,35,13.00
2014,10,24,15,36,13.00
2014,10,24,15,37,13.00
2014,10,24,15,38,13.00
2014,10,24,15,39,13.00
2014,10,24,15,40,13.00
2014,10,24,15,41,13.00
2014,10,24,15,42,13.00
2014,10,24,15,43,13.00
2014,10,24,15,44,13.00
2014,10,24,15,45,13.00
2014,10,24,15,46,13.00
2014,10,24,15,47,13.00
2014,10,24,15,48,13.00
2014,10,24,15,49,13.00
2014,10,24,15,50,13.00
2014,10,24,15,51,12.90
2014,10,24,15,52,12.90
2014,10,24,15,53,12.90
2014,10,24,15,54,12.80
2014,10,24,15,55,12.80
2014,10,24,15,56,12.80
2014,10,24,15,57,12.80
2014,10,24,15,58,12.80
2014,10,24,15,59,12.70
2014,10,24,16,00,12.70
2014,10,24,16,01,12.70
2014,10,24,16,02,12.70
2014,10,24,16,03,12.70
2014,10,24,16,04,12.70
2014,10,24,16,05,12.70
2014,10,24,16,06,12.60
2014,10,24,16,07,12.60
2014,10,24,16,08,12.60
2014,10,24,16,09,12.60
2014,10,24,16,10,12.50
2014,10,24,16,11,12.50
2014,10,24,16,12,12.50
2014,10,24,16,13,12.40
2014,10,24,16,14,12.40
2014,10,24,16,15,12.40
2014,10,24,16,16,12.40
2014,10,24,16,17,12.40
2014,10,24,16,18,12.40
2014,10,24,16,19,12.40
2014,10,24,16,20,12.40
2014,10,24,16,21,12.40
2014,10,24,16,22,12.40
2014,10,24,16,23,12.40
2014,10,24,16,24,12.40
2014,10,24,16,25,12.40
2014,10,24,16,26,12.40
2014,10,24,16,27,12.40
2014,10,24,16,28,12.40
2014,10,24,16,29,12.40
2014,10,24,16,30,12.40
2014,10,24,16,31,12.40
2014,10,24,16,32,12.40
2014,10,24,16,33,12.30
2014,10,24,16,34,12.30
2014,10,24,16,35,12.30
2014,10,24,16,36,12.20
2014,10,24,16,37,12.20
2014,10,24,16,38,12.10
2014,10,24,16,39,12.10
2014,10,24,16,40,12.00
2014,10,24,16,41,12.00
2014,10,24,16,42,11.90
2014,10,24,16,43,11.90
2014,10,24,16,44,11.90
2014,10,24,16,45,11.80
2014,10,24,16,46,11.80
2014,10,24,16,47,11.80
2014,10,24,16,48,11.80
2014,10,24,16,49,11.70
2014,10,24,16,50,11.70
2014,10,24,16,51,11.70
2014,10,24,16,52,11.60
2014,10,24,16,53,11.60
2014,10,24,16,54,11.60
2014,10,24,16,55,11.50
2014,10,24,16,56,11.40
2014,10,24,16,57,11.40
2014,10,24,16,58,11.30
2014,10,24,16,59,11.30
2014,10,24,17,00,11.30
2014,10,24,17,01,11.30
2014,10,24,17,02,11.30
2014,10,24,17,03,11.30
2014,10,24,17,04,11.20
2014,10,24,17,05,11.20
2014,10,24,17,06,11.20
2014,10,24,17,07,11.20
2014,10,24,17,08,11.20
2014,10,24,17,09,11.20
2014,10,24,17,10,11.10
2014,10,24,17,11,11.10
2014,10,24,17,12,11.00
2014,10,24,17,13,11.00
2014,10,24,17,14,10.90
2014,10,24,17,15,10.90
2014,10,24,17,16,10.90
2014,10,24,17,17,10.80
2014,10,24,17,18,10.80
2014,10,24,17,19,10.80
2014,10,24,17,20,10.80
2014,10,24,17,21,10.80
2014,10,24,17,22,10.70
2014,10,24,17,23,10.70
2014,10,24,17,24,10.70
2014,10,24,17,25,10.70
2014,10,24,17,26,10.70
2014,10,24,17,27,10.70
2014,10,24,17,28,10.70
2014,10,24,17,29,10.70
2014,10,24,17,30,10.70
2014,10,24,17,31,10.70
2014,10,24,17,32,10.70
2014,10,24,17,33,10.70
2014,10,24,17,34,10.70
2014,10,24,17,35,10.70
2014,10,24,17,36,10.70
2014,10,24,17,37,10.60
2014,10,24,17,38,10.60
2014,10,24,17,39,10.60
2014,10,24,17,40,10.50
2014,10,24,17,41,10.40
2014,10,24,17,42,10.40
2014,10,24,17,43,10.40
2014,10,24,17,44,10.30
2014,10,24,17,45,10.30
2014,10,24,17,46,10.30
2014,10,24,17,47,10.30
2014,10,24,17,48,10.30
2014,10,24,17,49,10.30